• In Germany
  • List of Countries
  • For 7 days
  • Water Temperature
  • Satellite Maps
  • Weather Map
  • Weather Widgets
  • user-avatar
    Login

    Hourly Weather Ganja

    Today, 25 July, Tuesday

    Time Temperature Precipitation Wind Pressure Humidity
    00:00 +25°C° 0.1 mm 4 mps 722 mmHg 63%
    01:00 +25°C° 0 mm 3 mps 722 mmHg 64%
    02:00 +24°C° 0 mm 3 mps 722 mmHg 65%
    03:00 +24°C° 0 mm 2 mps 721 mmHg 67%
    04:00 +24°C° 0 mm 2 mps 722 mmHg 66%
    05:00 +24°C° 0 mm 1 mps 722 mmHg 65%
    06:00 +24°C° 0 mm 1 mps 722 mmHg 64%
    07:00 +26°C° 0 mm 1 mps 721 mmHg 60%
    08:00 +27°C° 0 mm 1 mps 721 mmHg 55%
    09:00 +28°C° 0 mm 2 mps 721 mmHg 51%
    10:00 +30°C° 0 mm 2 mps 721 mmHg 47%
    11:00 +31°C° 0 mm 2 mps 720 mmHg 43%
    12:00 +33°C° 0 mm 3 mps 720 mmHg 40%
    13:00 +34°C° 0.1 mm 3 mps 720 mmHg 38%
    14:00 +35°C° 0.1 mm 3 mps 719 mmHg 37%
    15:00 +35°C° 0.1 mm 3 mps 719 mmHg 35%
    16:00 +35°C° 0.1 mm 3 mps 719 mmHg 36%
    17:00 +35°C° 0.1 mm 3 mps 719 mmHg 37%
    18:00 +34°C° 0.1 mm 3 mps 719 mmHg 38%
    19:00 +33°C° 0 mm 3 mps 719 mmHg 41%
    20:00 +30°C° 0 mm 3 mps 720 mmHg 44%
    21:00 +29°C° 0 mm 2 mps 720 mmHg 47%
    22:00 +28°C° 0 mm 2 mps 721 mmHg 49%
    23:00 +27°C° 0 mm 3 mps 721 mmHg 50%

    Tomorrow, 26 July, Wednesday

    Time Temperature Precipitation Wind Pressure Humidity
    00:00 +27°C° 0 mm 3 mps 721 mmHg 52%
    01:00 +26°C° 0 mm 2 mps 721 mmHg 54%
    02:00 +25°C° 0 mm 2 mps 721 mmHg 55%
    03:00 +25°C° 0 mm 2 mps 721 mmHg 57%
    04:00 +25°C° 0 mm 2 mps 721 mmHg 56%
    05:00 +25°C° 0 mm 2 mps 721 mmHg 55%
    06:00 +26°C° 0 mm 2 mps 721 mmHg 54%
    07:00 +27°C° 0 mm 2 mps 721 mmHg 50%
    08:00 +29°C° 0 mm 2 mps 721 mmHg 46%
    09:00 +30°C° 0 mm 2 mps 721 mmHg 42%
    10:00 +31°C° 0 mm 2 mps 721 mmHg 40%
    11:00 +32°C° 0 mm 2 mps 720 mmHg 37%
    12:00 +35°C° 0 mm 2 mps 720 mmHg 35%
    13:00 +35°C° 0 mm 2 mps 720 mmHg 34%
    14:00 +36°C° 0 mm 3 mps 720 mmHg 32%
    15:00 +37°C° 0 mm 3 mps 719 mmHg 31%
    16:00 +36°C° 0.1 mm 3 mps 719 mmHg 33%
    17:00 +36°C° 0.1 mm 3 mps 720 mmHg 34%
    18:00 +36°C° 0.1 mm 3 mps 720 mmHg 36%
    19:00 +34°C° 0 mm 3 mps 720 mmHg 39%
    20:00 +31°C° 0 mm 3 mps 721 mmHg 42%
    21:00 +29°C° 0 mm 4 mps 721 mmHg 45%
    22:00 +29°C° 0 mm 3 mps 722 mmHg 47%
    23:00 +28°C° 0 mm 3 mps 722 mmHg 49%

    Day after tomorrow, 27 July, Thursday

    Time Temperature Precipitation Wind Pressure Humidity
    00:00 +27°C° 0 mm 3 mps 722 mmHg 50%
    01:00 +27°C° 0 mm 2 mps 722 mmHg 52%
    02:00 +26°C° 0 mm 2 mps 722 mmHg 53%
    03:00 +26°C° 0 mm 1 mps 722 mmHg 54%
    04:00 +26°C° 0 mm 2 mps 722 mmHg 53%
    05:00 +26°C° 0 mm 2 mps 722 mmHg 52%
    06:00 +26°C° 0 mm 2 mps 723 mmHg 51%
    07:00 +28°C° 0 mm 2 mps 723 mmHg 47%
    08:00 +29°C° 0 mm 2 mps 723 mmHg 44%
    09:00 +31°C° 0 mm 2 mps 723 mmHg 40%
    10:00 +32°C° 0 mm 2 mps 722 mmHg 37%
    11:00 +34°C° 0 mm 2 mps 722 mmHg 35%
    12:00 +36°C° 0 mm 2 mps 722 mmHg 33%
    13:00 +36°C° 0 mm 2 mps 721 mmHg 32%
    14:00 +37°C° 0 mm 2 mps 721 mmHg 31%
    15:00 +38°C° 0 mm 3 mps 721 mmHg 30%
    16:00 +37°C° 0 mm 3 mps 721 mmHg 31%
    17:00 +37°C° 0 mm 2 mps 721 mmHg 32%
    18:00 +37°C° 0 mm 2 mps 721 mmHg 33%
    19:00 +35°C° 0 mm 3 mps 721 mmHg 35%
    20:00 +33°C° 0 mm 3 mps 722 mmHg 38%
    21:00 +31°C° 0 mm 3 mps 722 mmHg 40%
    22:00 +30°C° 0 mm 3 mps 722 mmHg 41%
    23:00 +29°C° 0 mm 3 mps 723 mmHg 41%

    28 July, Friday

    Time Temperature Precipitation Wind Pressure Humidity
    00:00 +28°C° 0 mm 2 mps 723 mmHg 42%
    01:00 +28°C° 0 mm 2 mps 723 mmHg 42%
    02:00 +27°C° 0 mm 2 mps 723 mmHg 43%
    03:00 +27°C° 0 mm 2 mps 722 mmHg 43%
    04:00 +27°C° 0 mm 2 mps 723 mmHg 43%
    05:00 +28°C° 0 mm 2 mps 723 mmHg 42%
    06:00 +28°C° 0 mm 2 mps 723 mmHg 41%
    07:00 +30°C° 0 mm 2 mps 722 mmHg 38%
    08:00 +31°C° 0 mm 2 mps 722 mmHg 34%
    09:00 +34°C° 0 mm 2 mps 722 mmHg 31%
    10:00 +36°C° 0 mm 2 mps 722 mmHg 29%
    11:00 +37°C° 0 mm 2 mps 722 mmHg 27%
    12:00 +38°C° 0 mm 2 mps 721 mmHg 26%
    13:00 +39°C° 0 mm 2 mps 721 mmHg 25%
    14:00 +39°C° 0 mm 2 mps 721 mmHg 25%
    15:00 +40°C° 0 mm 3 mps 720 mmHg 24%
    16:00 +40°C° 0 mm 2 mps 720 mmHg 26%
    17:00 +39°C° 0 mm 2 mps 720 mmHg 28%
    18:00 +39°C° 0 mm 2 mps 720 mmHg 29%
    19:00 +37°C° 0 mm 2 mps 721 mmHg 31%
    20:00 +35°C° 0 mm 2 mps 721 mmHg 33%
    21:00 +33°C° 0 mm 3 mps 721 mmHg 35%
    22:00 +31°C° 0 mm 2 mps 722 mmHg 36%
    23:00 +31°C° 0 mm 2 mps 722 mmHg 37%

    29 July, Saturday

    Time Temperature Precipitation Wind Pressure Humidity
    00:00 +30°C° 0 mm 2 mps 722 mmHg 38%
    01:00 +29°C° 0 mm 2 mps 722 mmHg 38%
    02:00 +29°C° 0 mm 2 mps 722 mmHg 38%
    03:00 +28°C° 0 mm 1 mps 722 mmHg 38%
    04:00 +29°C° 0 mm 2 mps 722 mmHg 37%
    05:00 +29°C° 0 mm 2 mps 722 mmHg 36%
    06:00 +29°C° 0 mm 3 mps 722 mmHg 35%
    07:00 +33°C° 0 mm 3 mps 722 mmHg 32%
    08:00 +35°C° 0 mm 3 mps 722 mmHg 29%
    09:00 +37°C° 0 mm 4 mps 722 mmHg 25%
    10:00 +38°C° 0 mm 3 mps 721 mmHg 24%
    11:00 +40°C° 0 mm 3 mps 721 mmHg 22%
    12:00 +42°C° 0 mm 3 mps 721 mmHg 20%
    13:00 +42°C° 0 mm 3 mps 720 mmHg 20%
    14:00 +43°C° 0 mm 3 mps 720 mmHg 19%
    15:00 +42°C° 0 mm 2 mps 720 mmHg 19%
    16:00 +42°C° 0 mm 2 mps 720 mmHg 21%
    17:00 +41°C° 0 mm 2 mps 720 mmHg 22%
    18:00 +41°C° 0 mm 2 mps 720 mmHg 24%
    19:00 +38°C° 0 mm 3 mps 721 mmHg 30%
    20:00 +36°C° 0 mm 4 mps 721 mmHg 35%
    21:00 +33°C° 0 mm 5 mps 722 mmHg 40%
    22:00 +32°C° 0 mm 5 mps 722 mmHg 43%
    23:00 +30°C° 0 mm 5 mps 723 mmHg 46%

    30 July, Sunday

    Time Temperature Precipitation Wind Pressure Humidity
    00:00 +29°C° 0 mm 6 mps 723 mmHg 49%
    01:00 +29°C° 0 mm 5 mps 723 mmHg 51%
    02:00 +28°C° 0 mm 5 mps 723 mmHg 52%
    03:00 +28°C° 0 mm 5 mps 724 mmHg 53%
    04:00 +28°C° 0 mm 5 mps 724 mmHg 53%
    05:00 +28°C° 0 mm 5 mps 724 mmHg 54%
    06:00 +28°C° 0 mm 5 mps 724 mmHg 54%
    07:00 +30°C° 0 mm 5 mps 724 mmHg 48%
    08:00 +32°C° 0 mm 5 mps 724 mmHg 42%
    09:00 +34°C° 0 mm 6 mps 724 mmHg 37%
    10:00 +35°C° 0 mm 5 mps 724 mmHg 34%
    11:00 +36°C° 0 mm 5 mps 724 mmHg 32%
    12:00 +37°C° 0 mm 4 mps 723 mmHg 29%
    13:00 +38°C° 0 mm 4 mps 723 mmHg 28%
    14:00 +38°C° 0 mm 3 mps 723 mmHg 28%
    15:00 +38°C° 0 mm 3 mps 723 mmHg 27%
    16:00 +38°C° 0 mm 2 mps 723 mmHg 28%
    17:00 +38°C° 0 mm 2 mps 723 mmHg 29%
    18:00 +37°C° 0 mm 2 mps 723 mmHg 30%
    19:00 +35°C° 0 mm 2 mps 724 mmHg 33%
    20:00 +33°C° 0 mm 3 mps 724 mmHg 36%
    21:00 +30°C° 0 mm 3 mps 725 mmHg 39%
    22:00 +29°C° 0 mm 3 mps 725 mmHg 41%
    23:00 +28°C° 0 mm 2 mps 725 mmHg 43%
    Show more